• Join FlightAware (Why Join?)
  • Login
  • US Flag 
08:49PM EDT


 

Airport Tracker/Info


-or-


 

Live Flight TrackerFlight Track Log ✈ SKW5550 ✈ 26-Jan-2014 ✈ KCOD - KDEN

Flight Track Log - Related Links

Times and Time Zones

All times are in EST time to prevent confusion due to time zone crossing. See the SKW5550 flight status page for this flight to view local times or setup timezone preferences in your user account.

Time Position Orientation Groundspeed Altitude Reporting Facility
EST Latitude Longitude Course Direction KTS MPH feet Rate Location/Type
07:56AM 44.5047 -109.0533 157° South 158 182 6,100  Level Salt Lake Center
07:57AM 44.4561 -109.0725 196° South 240 276 8,500 2,520 Climbing Salt Lake Center
07:58AM 44.1324 -108.6737 159° South  Level FlightAware Approximate
07:58AM 44.4417 -108.9828 103° East 262 302 11,200  Level Salt Lake Center
07:59AM 44.0337 -108.6198 159° South  Level FlightAware Approximate
07:59AM 44.4744 -108.8892 64° Northeast 274 315 13,300  Level Salt Lake Center
08:00AM 43.9354 -108.5650 157° South  Level FlightAware Approximate
08:00AM 44.4122 -108.7769 128° Southeast 361 415 15,200  Level Salt Lake Center
08:01AM 43.8378 -108.5081 157° South  Level FlightAware Approximate
08:01AM 44.3217 -108.6953 147° Southeast 383 441 17,300  Level Salt Lake Center
08:02AM 44.2264 -108.6097 147° Southeast 400 460 19,300 1,980 Climbing Salt Lake Center
08:03AM 44.1308 -108.5242 147° Southeast 408 470 21,300 1,800 Climbing Salt Lake Center
08:04AM 44.0364 -108.4394 147° Southeast 407 468 23,000 1,500 Climbing Salt Lake Center
08:05AM 43.9386 -108.3514 147° Southeast 415 478 24,400 1,380 Climbing Salt Lake Center
08:06AM 43.8378 -108.2625 148° Southeast 427 491 25,800 1,320 Climbing Salt Lake Center
08:07AM 43.7364 -108.1722 147° Southeast 433 498 27,100 1,080 Climbing Salt Lake Center
08:08AM 43.6308 -108.0806 148° Southeast 447 514 28,000 900 Climbing Salt Lake Center
08:09AM 43.5244 -107.9867 147° Southeast 456 525 28,900 840 Climbing Salt Lake Center
08:10AM 43.4164 -107.8919 148° Southeast 461 531 29,800 780 Climbing Salt Lake Center
08:11AM 43.3072 -107.7972 148° Southeast 464 534 30,500 600 Climbing Salt Lake Center
08:12AM 43.1972 -107.7011 147° Southeast 470 541 31,000 240 Climbing Salt Lake Center
08:13AM 43.0842 -107.6036 148° Southeast 479 551 31,000  Level Salt Lake Center
08:14AM 42.9675 -107.5022 148° Southeast 494 568 31,000  Level Salt Lake Center
08:15AM 42.8389 -107.3925 148° Southeast 503 579 31,000  Level Salt Lake Center
08:16AM 42.7267 -107.2903 146° Southeast 505 581 31,000  Level Salt Lake Center
08:17AM 42.6133 -107.1875 146° Southeast 510 587 31,000  Level Salt Lake Center
08:18AM 42.4803 -107.0672 146° Southeast 513 590 31,000  Level Salt Lake Center
08:19AM 42.3653 -106.9653 147° Southeast 515 593 31,000  Level Salt Lake Center
08:20AM 42.2508 -106.8633 147° Southeast 514 592 31,000  Level Salt Lake Center
08:21AM 42.1369 -106.7622 147° Southeast 513 590 31,000  Level Salt Lake Center
08:22AM 42.0047 -106.6458 147° Southeast 509 586 31,000  Level Salt Lake Center
08:23AM 41.8853 -106.5414 147° Southeast 506 582 31,000  Level Salt Lake Center
08:24AM 41.7742 -106.4439 147° Southeast 501 577 31,000  Level Salt Lake Center
08:25AM 41.6647 -106.3475 147° Southeast 497 572 31,000  Level Salt Lake Center
08:26AM 41.5350 -106.2339 147° Southeast 497 572 31,000  Level Denver Center
08:27AM 41.4264 -106.1408 147° Southeast 489 563 31,000  Level Denver Center
08:28AM 41.2989 -106.0314 147° Southeast 490 564 31,000  Level Denver Center
08:29AM 41.1894 -105.9372 147° Southeast 490 564 31,000 -480 Level Denver Center
08:30AM 41.0797 -105.8458 148° Southeast 488 562 30,100 -1,560 Descending Denver Center
08:31AM 40.9458 -105.7303 147° Southeast 504 580 27,900 -2,460 Descending Denver Center
08:32AM 40.8319 -105.6347 148° Southeast 493 567 25,200 -2,580 Descending Denver Center
08:33AM 40.7236 -105.5442 148° Southeast 470 541 22,700 -2,400 Descending Denver Center
08:34AM 40.6219 -105.4569 147° Southeast 445 512 20,400 -1,740 Descending Denver Center
08:35AM 40.5514 -105.3464 130° Southeast 402 463 19,200 -1,320 Descending Denver Center
08:36AM 40.4867 -105.2222 124° Southeast 406 467 17,800 -1,320 Descending Denver Center
08:37AM 40.4153 -105.1044 129° Southeast 401 461 16,600 -1,500 Descending Denver Center
08:38AM 40.3283 -104.9658 129° Southeast 409 471 14,500 -1,920 Descending Denver Center
08:39AM 40.2625 -104.8583 129° Southeast 380 437 12,400 -2,040 Descending Denver Center
08:40AM 40.1931 -104.7833 140° Southeast 339 390 10,500 -1,980 Descending Denver Center
08:41AM 40.1150 -104.7492 161° South 298 343 8,500 -1,500 Descending Denver Center
08:42AM 40.0450 -104.7211 163° South 270 311 7,500 -660 Descending Denver Center
08:43AM 39.9856 -104.6961 162° South 225 259 7,200 -660 Descending Denver Center
08:44AM 39.9383 -104.6958 180° South 172 198 6,200 -900 Descending Denver Center
08:45AM 39.8994 -104.6958 180° South 143 165 5,500 -720 Descending Denver Center